Regional Weather Roundup
Issued by NWS

Home | Current Version | Previous Version | Graphics & Text | Print | Product List | Glossary On
Versions: 1 2 3 4 5 6 7 8 9 10 11 12 13 14 15 16 17 18 19 20 21 22 23 24 25 26 27 28 29 30 31 32 33 34 35 36 37 38 39 40 41 42 43 44 45 46 47 48 49 50
000
ASUS43 KTOP 151708
RWRKS

WEATHER ROUNDUP FOR KANSAS
NATIONAL WEATHER SERVICE GOODLAND KS
1200 PM CDT TUE APR 15 2014

NOTE:  "FAIR" INDICATES FEW OR NO CLOUDS BELOW 12,000 FEET WITH NO
SIGNIFICANT WEATHER AND/OR OBSTRUCTIONS TO VISIBILITY.

KSZ001>006-013>018-027>032-041>047-151800-
NORTHWEST KANSAS

CITY           SKY/WX    TMP DP  RH WIND       PRES   REMARKS
GOODLAND       SUNNY     57  24  28 SW17G25   29.98F
HAYS           SUNNY     57  16  19 S17G24    30.08F
HILL CITY      SUNNY     56  16  20 SW17G26   30.04F
RUSSELL        SUNNY     54  17  23 SW15      30.08F
$$

KSZ061>065-074>080-084>089-151800-
SOUTHWEST KANSAS

CITY           SKY/WX    TMP DP  RH WIND       PRES   REMARKS
DODGE CITY     SUNNY     53  18  25 S22G31    30.12F
ELKHART          N/A     51  23  33 SW18        N/A
GARDEN CITY    SUNNY     52  26  36 SW23G30   30.07F
GREAT BEND     SUNNY     55  18  22 SW14      30.11F
LIBERAL        SUNNY     54  27  35 SW25G32   30.12F
PRATT          SUNNY     54  19  26 SW13      30.16F
$$

KSZ066>073-081>083-090>101-151800-
SOUTHEAST KANSAS

CITY           SKY/WX    TMP DP  RH WIND       PRES   REMARKS
CHANUTE        SUNNY     49  22  34 MISG      30.23S
COFFEYVILLE    SUNNY     52  23  32 VRB5      30.23F
HUTCHINSON     SUNNY     54  19  25 W10       30.16F
MEDICINE LODGE   N/A     56  14  19 W5        30.17F
NEWTON         SUNNY     52  21  30 SW10      30.21F
PARSONS        SUNNY     50  24  36 VRB3      30.24F
WICHITA INTL   SUNNY     52  24  33 VRB6      30.19F
WICHITA JABRA  SUNNY     52  24  33 SW10G17   30.19F
WICHITA MCCONL SUNNY     52  23  32 S8        30.19F
WINFIELD       SUNNY     55  26  32 VRB5      30.22F
$$

KSZ007>012-019>026-033>040-048>060-102>105-151800-
NORTHEAST KANSAS

CITY           SKY/WX    TMP DP  RH WIND       PRES   REMARKS
CONCORDIA      SUNNY     50  20  30 S16G24    30.12F
EMPORIA        SUNNY     49  20  31 VRB5      30.19F
LAWRENCE       SUNNY     46  25  43 VRB6      30.21F
MANHATTAN      SUNNY     49  21  33 VRB6      30.17F
OLATHE IND     SUNNY     45  24  43 VRB5      30.21F
OLATHE EXE     SUNNY     44  22  41 SW6       30.19F
SALINA         SUNNY     52  22  30 S9G17     30.16F
TOPEKA BILLARD SUNNY     48  23  37 VRB3      30.21S
TOPEKA FORBES    N/A    N/A N/A N/A MISG      30.19F
$$



USA.gov is the U.S. government's official web portal to all federal, state and local government web resources and services.